TIME,�g��[���C[MJ/h],����[MJ/h],�Ɩ�[MJ/h],�~�[[MJ/h],�①��[MJ/h],��y���[MJ/h],�Ǝ��q��[MJ/h],���̑�[MJ/h],�����G�l���M�[[MJ/h]
2003/6/1 0:00,0,0,0,0.1868,0.3865,0.3842,0.0314,0.6696,0
2003/6/1 0:15,0,0,0,0.192,0.3328,0.4118,0.0338,0.8732,0
2003/6/1 0:30,0,0,0,0.194,0.1106,0.4018,0.0336,1.1107,0
2003/6/1 0:45,0,0,0,0.193,0.4082,0.3979,0.0432,0.8425,0
2003/6/1 1:00,0,0,0,0.1986,0.3214,0.1623,0.1359,0.9176,0
2003/6/1 1:15,0,0,0,0.3964,0.0684,0.0432,0.0868,0.7239,0
2003/6/1 1:30,0,0,0,0.4058,0.3227,0.0432,0.0828,0.2936,0
2003/6/1 1:45,0,0,0,0.1649,0.3074,0.0431,0.0851,0.3319,0
2003/6/1 2:00,0,0,0,0.163,0.3033,0.0436,0.1313,0.3276,0
2003/6/1 2:15,0,0,0,0.2193,0.2667,0.0436,0.0852,0.3097,0
2003/6/1 2:30,0,0,0,0.2231,0.5738,0.0436,0.086,0.3096,0
2003/6/1 2:45,0.0006,0,0,0.2248,0.4977,0.0436,0.0857,0.3205,0
2003/6/1 3:00,0,0,0,0.221,0.5386,0.0438,0.1426,0.4795,0
2003/6/1 3:15,0,0,0,0.2242,0.4828,0.0431,0.0852,0.3063,0
2003/6/1 3:30,0,0,0,0.222,0.4524,0.0433,0.0852,0.3089,0
2003/6/1 3:45,0,0,0,0.2277,0.4722,0.0433,0.0857,0.3087,0
2003/6/1 4:00,0,0,0,0.2246,0.2987,0.0433,0.0855,0.3023,0
2003/6/1 4:15,0,0,0,0.2239,0.0765,0.0432,0.139,0.3744,0
2003/6/1 4:30,0,0,0,0.2271,0.4065,0.0436,0.0855,0.4965,0
2003/6/1 4:45,0.0006,0,0,0.2203,0.2794,0.0435,0.0852,0.4594,0
2003/6/1 5:00,0.0003,0,0,0.2333,0.161,0.0436,0.0861,0.5141,0
2003/6/1 5:15,0.0001,0,0,0.2242,0.3964,0.0438,0.0857,0.5509,0
2003/6/1 5:30,0.0003,0,0,0.2252,0.1263,0.0438,0.1356,0.4837,0
2003/6/1 5:45,0.0009,0,0,0.2244,0.2684,0.0439,0.0706,0.5306,0
2003/6/1 6:00,0.0003,0,0,0.2317,0.3002,0.0438,0.0233,0.525,0
2003/6/1 6:15,0.0003,0,0,0.2239,0.0845,0.0432,0.0384,0.4935,0
2003/6/1 6:30,0,0,0,0.2264,0.2625,0.0435,0.0874,0.4841,0
2003/6/1 6:45,0,0,0,0.2186,0.3066,0.0429,0.0341,0.5266,0
2003/6/1 7:00,0,0,0,0.2297,0.0812,0.0602,0.0341,0.4643,0
2003/6/1 7:15,0.0004,0,0,0.1601,0.2781,0.0428,0.034,0.3361,0
2003/6/1 7:30,0.0012,0,0,0.1541,0.3034,0.0438,0.0341,0.3452,0
2003/6/1 7:45,0.0009,0,0,0.1574,0.0788,0.0441,0.0818,0.5701,0
2003/6/1 8:00,0.0014,0,0,0.1702,0.2724,0.0444,0.0347,0.5198,0
2003/6/1 8:15,0,0,0,0.1884,0.3046,0.0433,0.0346,0.6016,0
2003/6/1 8:30,0,0,0,0.194,0.0753,0.0433,0.0346,0.6738,0
2003/6/1 8:45,0,0,0,0.1912,0.283,0.0431,0.0344,0.9514,0
2003/6/1 9:00,0,0,0,0.1951,0.3018,0.0431,0.087,0.9272,0
2003/6/1 9:15,0,0,0,0.1983,0.0714,0.0431,0.0346,1.1071,0
2003/6/1 9:30,0,0,0,0.1911,0.2762,0.1853,0.0344,1.6587,0
2003/6/1 9:45,0,0,0,1.0706,0.311,0.4709,0.0343,1.13,0
2003/6/1 10:00,0,0,0,1.658,0.0998,0.3505,0.0841,2.2477,0
2003/6/1 10:15,0,0,0,1.3542,0.3527,0.0426,0.0337,3.1539,0
2003/6/1 10:30,0,0,0,0.3856,0.4036,0.1087,0.0346,1.9596,0
2003/6/1 10:45,0,0,0,0.1944,0.111,0.1833,0.0308,1.9882,0
2003/6/1 11:00,0,0,0,0.1922,0.3439,0.179,0.0228,1.7739,0
2003/6/1 11:15,0,0,0,0.1855,0.3914,0.1763,0.0696,1.5072,0
2003/6/1 11:30,0,0,0,0.1951,0.0904,0.1146,0.0334,0.734,0
2003/6/1 11:45,0,0,0,0.1839,0.3063,0.0431,0.0338,0.5617,0
2003/6/1 12:00,0,0,0,0.1981,0.3972,0.0516,0.0338,0.5789,0
2003/6/1 12:15,0,0,0,0.1871,0.087,0.1093,0.09,0.7282,0
2003/6/1 12:30,0,0,0,0.5054,0.3456,0.1407,0.0936,0.793,0
2003/6/1 12:45,0,0,0,0.1866,0.3859,0.1387,0.0386,0.8355,0
2003/6/1 13:00,0,0,0,0.1907,0.0815,0.1378,0.0384,0.7379,0
2003/6/1 13:15,0,0,0,0.3953,0.3256,0.1485,0.0765,1.4748,0
2003/6/1 13:30,0,0,0,0.3914,0.4398,0.1728,0.0382,1.508,0
2003/6/1 13:45,0,0,0,1.8495,0.0852,0.1718,0.0379,1.312,0
2003/6/1 14:00,0,0,0,0.8326,0.3459,0.1725,0.0377,1.4302,0
2003/6/1 14:15,0,0,0,0.1531,0.4418,0.1724,0.0884,1.4109,0
2003/6/1 14:30,0,0,0,0.1243,0.0808,0.1333,0.0331,1.3126,0
2003/6/1 14:45,0,0,0,0.1305,0.3794,0.0431,0.0327,0.8806,0
2003/6/1 15:00,0,0,0,0.1274,0.4359,0.0428,0.0325,0.5524,0
2003/6/1 15:15,0,0,0,0.1257,0.0736,0.0428,0.0292,0.9962,0
2003/6/1 15:30,0,0,0,0.131,0.3256,0.0429,0.0857,1.166,0
2003/6/1 15:45,0,0,0,0.1318,0.4404,0.0426,0.0325,1.1382,0
2003/6/1 16:00,0,0,0,0.124,0.0691,0.0425,0.0327,1.0345,0
2003/6/1 16:15,0,0,0,0.1282,0.3699,0.0426,0.0324,1.039,0
2003/6/1 16:30,0,0,0,0.1313,0.4285,0.0425,0.032,1.0613,0
2003/6/1 16:45,0,0,0,0.1243,0.4359,0.0431,0.0812,1.0237,0
2003/6/1 17:00,0,0,0,1.2198,0.0717,0.0428,0.0325,1.3117,0
2003/6/1 17:15,0,0,0,1.3002,0.2488,0.0426,0.0325,1.9591,0
2003/6/1 17:30,0,0,0,0.1319,0.4491,0.0429,0.0318,1.697,0
2003/6/1 17:45,0,0,0,0.1231,0.1568,0.0429,0.0325,1.5936,0
2003/6/1 18:00,0,0,0,0.1274,0.3125,0.1935,0.0832,1.5277,0
2003/6/1 18:15,0,0,0,0.1286,0.3181,0.5136,0.032,1.3928,0
2003/6/1 18:30,0,0,0,0.128,0.1449,0.4975,0.0317,1.2764,0
2003/6/1 18:45,0,0,0,0.1276,0.4448,0.5093,0.032,1.0259,0
2003/6/1 19:00,0,0,0,0.1277,0.0769,0.4944,0.0321,1.3101,0
2003/6/1 19:15,0,0,0,0.127,0.3875,0.41,0.0783,1.2715,0
2003/6/1 19:30,0,0,0,0.1241,0.2275,0.3079,0.0317,1.067,0
2003/6/1 19:45,0,0,0,0.128,0.2255,0.1096,0.0315,0.9022,0
2003/6/1 20:00,0,0,0,0.1256,0.3679,0.0852,0.0317,1.0022,0
2003/6/1 20:15,0,0,0,0.1303,0.0467,0.2956,0.0837,1.203,0
2003/6/1 20:30,0,0,0,0.128,0.4088,0.429,0.0314,1.3018,0
2003/6/1 20:45,0,0,0,0.1241,0.2042,0.4356,0.0318,1.7117,0
2003/6/1 21:00,0,0,0,0.1315,0.2189,0.3858,0.0317,1.5366,0
2003/6/1 21:15,0,0,0,0.1279,0.3977,0.0435,0.0315,1.4132,0
2003/6/1 21:30,0,0,0,0.1295,0.0747,0.0431,0.0864,1.3193,0
2003/6/1 21:45,0,0,0,0.1277,0.3938,0.0431,0.032,1.0489,0
2003/6/1 22:00,0,0,0,0.1253,0.2913,0.0435,0.0321,0.3388,0
2003/6/1 22:15,0,0,0,0.1306,0.1863,0.0433,0.0323,0.38,0
2003/6/1 22:30,0,0,0,0.1272,0.4179,0.0435,0.0323,0.8574,0
2003/6/1 22:45,0,0,0,0.1309,0.05,0.4255,0.0822,0.8375,0
2003/6/1 23:00,0,0,0,0.1284,0.4111,0.4512,0.0323,0.912,0
2003/6/1 23:15,0,0,0,0.518,0.2254,0.473,0.0327,0.8623,0
2003/6/1 23:30,0,0,0,2.9792,0.1709,0.4693,0.0324,0.9266,0
2003/6/1 23:45,0,0,0,0.0251,0.3102,0.4679,0.0327,0.8349,0
2003/6/2 0:00,0,0,0,0.06,0.1575,0.4391,0.084,0.8339,0
2003/6/2 0:15,0,0,0,0.1032,0.1747,0.4029,0.0327,0.8997,0
2003/6/2 0:30,0,0,0,0.1228,0.3136,0.4044,0.0672,0.8572,0
2003/6/2 0:45,0,0,0,0.1345,0.1822,0.3228,0.0953,0.9323,0
2003/6/2 1:00,0,0,0,0.1312,0.2002,0.0432,0.0945,0.4308,0
2003/6/2 1:15,0,0,0,0.1356,0.3986,0.0431,0.147,0.2827,0
2003/6/2 1:30,0,0,0,0.1364,0.091,0.0436,0.0958,0.2844,0
2003/6/2 1:45,0,0,0,0.138,0.2776,0.0432,0.0831,0.2771,0
2003/6/2 2:00,0,0,0,0.1338,0.3015,0.0435,0.0854,0.2796,0
2003/6/2 2:15,0,0,0,0.1367,0.0606,0.0432,0.0852,0.2817,0
2003/6/2 2:30,0.0003,0,0,0.1385,0.2648,0.0435,0.1426,0.2762,0
2003/6/2 2:45,0.0003,0,0,0.1339,0.3076,0.0433,0.0854,0.2831,0
2003/6/2 3:00,0.0003,0,0,0.1372,0.0766,0.0435,0.0857,0.2771,0
2003/6/2 3:15,0.0003,0,0,0.1403,0.2752,0.0429,0.0863,0.287,0
2003/6/2 3:30,0.0006,0,0,0.1364,0.3041,0.0429,0.086,0.2786,0
2003/6/2 3:45,0.0006,0,0,0.1335,0.2982,0.0428,0.1346,0.2782,0
2003/6/2 4:00,0,0,0,0.1377,0.2621,0.0429,0.0864,0.2704,0
2003/6/2 4:15,0.0003,0,0,0.1355,0.5692,0.0431,0.0873,0.2856,0
2003/6/2 4:30,0.0023,0,0,0.141,0.5724,0.0431,0.0868,0.2814,0
2003/6/2 4:45,0.002,0,0,0.1374,0.4661,0.0436,0.1387,0.2853,0
2003/6/2 5:00,0.0007,0,0,0.1346,0.481,0.0435,0.0871,0.2832,0
2003/6/2 5:15,0.0009,0,0,0.1367,0.4363,0.0436,0.0877,0.2943,0
2003/6/2 5:30,0,0,0,0.1367,0.4667,0.0432,0.0461,0.2753,0
2003/6/2 5:45,0.0012,0,0,0.1364,0.1354,0.0435,0.0734,0.2697,0
2003/6/2 6:00,0.0003,0,0,0.9952,0.2354,0.0432,0.0251,0.284,0
2003/6/2 6:15,0.0006,0,0,1.4085,0.3848,0.0432,0.0405,0.1074,0
2003/6/2 6:30,0,0,0,0.3976,0.0867,0.0428,0.0366,0.2455,0
2003/6/2 6:45,0.0009,0,0,0.3421,0.2766,0.2915,0.1044,0.7854,0
2003/6/2 7:00,0.0019,0,0,2.3149,0.3933,0.4308,0.1068,1.1974,0
2003/6/2 7:15,0.0006,0,0,4.3888,0.0847,0.3943,0.3185,1.0999,0
2003/6/2 7:30,0.0003,0,0,3.1189,0.3048,0.4244,0.852,0.985,0
2003/6/2 7:45,0.0003,0,0,1.1053,0.3087,0.4203,0.5361,1.0947,0
2003/6/2 8:00,0.0012,0,0,0.5983,0.111,0.4271,0.7134,1.3471,0
2003/6/2 8:15,0.0003,0,0,0.3298,0.3479,0.4239,0.2277,1.1644,0
2003/6/2 8:30,0.0003,0,0,0.192,0.394,0.3797,0.0366,1.182,0
2003/6/2 8:45,0.0006,0,0,0.1997,0.0986,0.0943,0.0361,0.7662,0
2003/6/2 9:00,0.0003,0,0,0.1957,0.3594,0.0429,0.0834,0.7096,0
2003/6/2 9:15,0,0,0,0.196,0.2758,0.0426,0.0361,0.6713,0
2003/6/2 9:30,0,0,0,0.1994,0.1776,0.0431,0.0359,0.3643,0
2003/6/2 9:45,0,0,0,0.2004,0.3997,0.0428,0.1009,0.4028,0
2003/6/2 10:00,0,0,0,0.1921,0.1156,0.0426,0.0356,0.2415,0
2003/6/2 10:15,0,0,0,0.2036,0.344,0.0428,0.0357,0.2305,0
2003/6/2 10:30,0,0,0,0.201,0.267,0.0425,0.0811,0.2398,0
2003/6/2 10:45,0,0,0,0.2016,0.1862,0.0426,0.0356,0.6458,0
2003/6/2 11:00,0.0009,0,0,0.2006,0.3947,0.0425,0.0359,0.65,0
2003/6/2 11:15,0,0,0,0.1974,0.0727,0.0428,0.0359,0.8677,0
2003/6/2 11:30,0,0,0,0.204,0.3083,0.0423,0.0824,0.2347,0
2003/6/2 11:45,0,0,0,0.1977,0.2978,0.0425,0.0354,0.2449,0
2003/6/2 12:00,0,0,0,0.2026,0.0537,0.0516,0.0357,0.3475,0
2003/6/2 12:15,0.0017,0,0,0.197,0.4032,0.0431,0.0354,1.5257,0
2003/6/2 12:30,0.0009,0,0,0.1943,0.2366,0.0431,0.0824,1.7741,0
2003/6/2 12:45,0,0,0,0.1966,0.2216,0.0432,0.0353,0.6267,0
2003/6/2 13:00,0,0,0,0.1915,0.384,0.0431,0.0354,0.5702,0
2003/6/2 13:15,0.0006,0,0,0.197,0.0635,0.0429,0.0354,0.6149,0
2003/6/2 13:30,0,0,0,0.318,0.3217,0.0431,0.0891,0.6479,0
2003/6/2 13:45,0.0004,0,0,0.4052,0.2716,0.0431,0.0351,0.976,0
2003/6/2 14:00,0,0,0,0.4712,0.0851,0.0431,0.0353,1.209,0
2003/6/2 14:15,0,0,0,0.6503,0.3187,0.0431,0.0336,0.9891,0
2003/6/2 14:30,0,0,0,0.202,0.2763,0.0431,0.0354,0.6124,0
2003/6/2 14:45,0.0003,0,0,0.2267,0.0989,0.0429,0.0808,0.2336,0
2003/6/2 15:00,0,0,0,0.2288,0.4068,0.0429,0.0354,0.2186,0
2003/6/2 15:15,0.0003,0,0,0.2232,0.1845,0.0429,0.0356,0.2271,0
2003/6/2 15:30,0,0,0,0.2264,0.272,0.0428,0.0354,0.2138,0
2003/6/2 15:45,0,0,0,0.2308,0.3138,0.0429,0.0814,0.4444,0
2003/6/2 16:00,0.0003,0,0,0.2251,0.1381,0.0428,0.0347,0.2176,0
2003/6/2 16:15,0,0,0,0.234,0.3951,0.0428,0.0343,0.5594,0
2003/6/2 16:30,0,0,0,0.4429,0.2694,0.0428,0.0356,1.0205,0
2003/6/2 16:45,0,0,0,0.2298,0.1246,0.3868,0.0863,1.0614,0
2003/6/2 17:00,0,0,0,0.2228,0.3997,0.4019,0.0356,1.1483,0
2003/6/2 17:15,0,0,0,0.2252,0.1371,0.3859,0.0353,1.4255,0
2003/6/2 17:30,0,0,0,0.2292,0.3151,0.1179,0.035,1.2951,0
2003/6/2 17:45,0,0,0,0.2318,0.2232,0.0425,0.077,1.3654,0
2003/6/2 18:00,0,0,0,0.229,0.2295,0.0428,0.0348,1.2002,0
2003/6/2 18:15,0,0,0,0.2274,0.3449,0.0425,0.0347,1.2139,0
2003/6/2 18:30,0,0,0,0.2346,0.1031,0.0423,0.0347,1.1412,0
2003/6/2 18:45,0,0,0,0.2265,0.4009,0.0426,0.0848,1.081,0
2003/6/2 19:00,0,0,0,0.2304,0.1428,0.2115,0.2602,1.292,0
2003/6/2 19:15,0,0,0,0.2324,0.2524,0.3914,0.0348,1.1412,0
2003/6/2 19:30,0,0,0,3.1651,0.3093,0.1231,0.0348,1.2828,0
2003/6/2 19:45,0,0,0,2.1709,0.108,0.0428,0.0734,1.6613,0
2003/6/2 20:00,0,0,0,0.5315,0.3416,0.0428,0.0331,1.1249,0
2003/6/2 20:15,0,0,0,0.132,0.3974,0.0431,0.0351,1.0214,0
2003/6/2 20:30,0,0,0,0.1309,0.1143,0.0432,0.0354,1.0885,0
2003/6/2 20:45,0,0,0,0.1312,0.3416,0.0433,0.0789,1.3988,0
2003/6/2 21:00,0,0,0,0.1308,0.3216,0.0432,0.0284,1.5705,0
2003/6/2 21:15,0,0,0,0.1367,0.1142,0.0433,0.035,1.3396,0
2003/6/2 21:30,0,0,0,0.1277,0.3141,0.0425,0.0351,1.2901,0
2003/6/2 21:45,0,0,0,0.1309,0.2308,0.0428,0.0825,1.5987,0
2003/6/2 22:00,0,0,0,0.1339,0.1264,0.0429,0.0356,0.8109,0
2003/6/2 22:15,0,0,0,0.1326,0.3146,0.1038,0.0357,1.0191,0
2003/6/2 22:30,0,0,0,0.7046,0.236,0.4023,0.0354,1.0732,0
2003/6/2 22:45,0,0,0,0.4313,0.1572,0.4092,0.0713,1.0378,0
2003/6/2 23:00,0,0,0,0.1332,0.4056,0.4175,0.0233,1.1042,0
2003/6/2 23:15,0,0,0,0.1322,0.2798,0.3951,0.0238,1.0642,0
2003/6/2 23:30,0,0,0,0.131,0.1358,0.4005,0.039,1.35,0
2003/6/2 23:45,0,0,0,0.1284,0.3167,0.4065,0.0864,1.0961,0
2003/6/3 0:00,0,0,0,0.1356,0.3408,0.4264,0.0351,0.9857,0
2003/6/3 0:15,0,0,0,0.1318,0.222,0.1107,0.0693,0.8788,0
2003/6/3 0:30,0,0,0,0.1387,0.2448,0.0435,0.0984,0.3407,0
2003/6/3 0:45,0,0,0,0.1332,0.3937,0.0432,0.0981,0.3322,0
2003/6/3 1:00,0,0,0,0.1369,0.1994,0.0433,0.1362,0.328,0
2003/6/3 1:15,0,0,0,0.1338,0.2023,0.0431,0.0865,0.3289,0
2003/6/3 1:30,0,0,0,0.1377,0.3106,0.0432,0.0865,0.3252,0
2003/6/3 1:45,0.0006,0,0,0.1331,0.1604,0.0433,0.0868,0.3321,0
2003/6/3 2:00,0.0006,0,0,0.1326,0.2069,0.0435,0.1341,0.3362,0
2003/6/3 2:15,0.0003,0,0,0.1368,0.3083,0.0436,0.0873,0.3372,0
2003/6/3 2:30,0.0009,0,0,0.1346,0.1542,0.0436,0.0874,0.3313,0
2003/6/3 2:45,0.0003,0,0,0.1325,0.2102,0.0436,0.0865,0.3252,0
2003/6/3 3:00,0.0019,0,0,0.1333,0.3099,0.0432,0.1382,0.3439,0
2003/6/3 3:15,0,0,0,0.1362,0.2965,0.0426,0.0864,0.3198,0
2003/6/3 3:30,0.0017,0,0,0.1329,0.2441,0.0429,0.0868,0.3331,0
2003/6/3 3:45,0.0003,0,0,0.1356,0.5033,0.0428,0.0878,0.3175,0
2003/6/3 4:00,0.0009,0,0,0.1313,0.5652,0.0429,0.1385,0.3264,0
2003/6/3 4:15,0.0004,0,0,0.1354,0.4774,0.0428,0.0877,0.3234,0
2003/6/3 4:30,0.0004,0,0,0.1356,0.4902,0.0431,0.0876,0.3799,0
2003/6/3 4:45,0.0016,0,0,0.1316,0.4355,0.0431,0.088,0.3253,0
2003/6/3 5:00,0.0003,0,0,0.1348,0.4664,0.0432,0.1238,0.3216,0
2003/6/3 5:15,0,0,0,0.1361,0.2068,0.0431,0.0544,0.3254,0
2003/6/3 5:30,0,0,0,0.132,0.2344,0.0431,0.0256,0.3311,0
2003/6/3 5:45,0.0007,0,0,0.1333,0.32,0.0429,0.0253,0.3254,0
2003/6/3 6:00,0.0001,0,0,0.8414,0.1279,0.2627,0.0752,0.4995,0
2003/6/3 6:15,0.0012,0,0,1.0244,0.3956,0.428,0.0409,1.0552,0
2003/6/3 6:30,0.0003,0,0,0.3761,0.1018,0.4213,0.0752,0.883,0
2003/6/3 6:45,0.0003,0,0,0.3393,0.3551,0.4167,0.1963,1.2093,0
2003/6/3 7:00,0.0009,0,0,0.1732,0.2377,0.4344,0.8182,0.9613,0
2003/6/3 7:15,0.0004,0,0,2.4951,0.1833,0.4067,0.7914,1.4116,0
2003/6/3 7:30,0,0,0,4.3551,0.3168,0.4242,0.6193,1.2891,0
2003/6/3 7:45,0.0009,0,0,0.186,0.1781,0.4236,0.7872,1.1297,0
2003/6/3 8:00,0.0003,0,0,1.7813,0.2383,0.4166,0.0372,1.1814,0
2003/6/3 8:15,0.0003,0,0,0.0891,0.3931,0.4075,0.0847,1.1324,0
2003/6/3 8:30,0.0006,0,0,0.1264,0.0759,0.2902,0.0369,1.0524,0
2003/6/3 8:45,0.0003,0,0,0.1673,0.3851,0.0433,0.0369,0.7135,0
2003/6/3 9:00,0,0,0,0.6684,0.1986,0.0432,0.0373,0.6974,0
2003/6/3 9:15,0.0006,0,0,0.194,0.2084,0.0429,0.1597,0.5908,0
2003/6/3 9:30,0,0,0,0.2048,0.305,0.0431,0.0477,0.4012,0
2003/6/3 9:45,0,0,0,0.1976,0.1348,0.0428,0.0729,0.2724,0
2003/6/3 10:00,0,0,0,0.2007,0.2284,0.0428,0.0366,0.2418,0
2003/6/3 10:15,0,0,0,0.2033,0.3089,0.0426,0.0828,0.2436,0
2003/6/3 10:30,0,0,0,0.1983,0.1322,0.0428,0.0363,0.2555,0
2003/6/3 10:45,0,0,0,0.2,0.2318,0.0425,0.0363,0.2461,0
2003/6/3 11:00,0,0,0,0.2004,0.3066,0.0428,0.0361,0.2491,0
2003/6/3 11:15,0,0,0,0.1968,0.1284,0.0428,0.09,0.2478,0
2003/6/3 11:30,0,0,0,0.1987,0.2346,0.0426,0.0357,0.2557,0
2003/6/3 11:45,0,0,0,0.2007,0.3054,0.0428,0.0359,0.2615,0
2003/6/3 12:00,0,0,0,0.1971,0.1257,0.0508,0.0357,0.2686,0
2003/6/3 12:15,0,0,0,0.2048,0.2385,0.0425,0.0225,0.252,0
2003/6/3 12:30,0,0,0,0.1938,0.3041,0.0428,0.0736,0.2926,0
2003/6/3 12:45,0,0,0,0.1945,0.1228,0.0423,0.0243,0.2714,0
2003/6/3 13:00,0,0,0,0.1986,0.2419,0.0425,0.0392,0.2976,0
2003/6/3 13:15,0,0,0,0.3181,0.3048,0.0422,0.0356,0.2039,0
2003/6/3 13:30,0,0,0,0.373,0.1187,0.0426,0.0864,0.128,0
2003/6/3 13:45,0,0,0,0.1619,0.2458,0.0428,0.0348,0.2625,0
2003/6/3 14:00,0,0,0,0.2177,0.3051,0.0431,0.0347,0.4517,0
2003/6/3 14:15,0,0,0,0.2256,0.1148,0.0428,0.0347,0.4333,0
2003/6/3 14:30,0,0,0,0.2314,0.2487,0.0426,0.0822,0.4468,0
2003/6/3 14:45,0,0,0,0.2272,0.305,0.0429,0.0341,0.4465,0
2003/6/3 15:00,0,0,0,0.2249,0.1122,0.0425,0.0341,0.3734,0
2003/6/3 15:15,0,0,0,0.3358,0.3188,0.0428,0.0324,0.5147,0
2003/6/3 15:30,0,0,0,0.221,0.3086,0.0425,0.0324,0.9595,0
2003/6/3 15:45,0,0,0,0.2318,0.1459,0.0426,0.0779,0.4467,0
2003/6/3 16:00,0,0,0,0.2197,0.3948,0.0425,0.0336,0.4041,0
2003/6/3 16:15,0,0,0,0.2244,0.2788,0.0423,0.034,0.6303,0
2003/6/3 16:30,0,0,0,0.2281,0.0359,0.0426,0.0336,0.2735,0
2003/6/3 16:45,0,0,0,0.2245,0.4088,0.0423,0.0834,0.4676,0
2003/6/3 17:00,0,0,0,0.2242,0.3027,0.0423,0.0337,0.7724,0
2003/6/3 17:15,0,0,0,0.2235,0.1634,0.0423,0.031,0.5944,0
2003/6/3 17:30,0,0,0,0.2314,0.3986,0.0422,0.0347,0.581,0
2003/6/3 17:45,0,0,0,0.2242,0.0995,0.0422,0.0812,0.5357,0
2003/6/3 18:00,0,0,0,0.2255,0.3984,0.0428,0.0346,0.4935,0
2003/6/3 18:15,0,0,0,0.2284,0.1125,0.0429,0.0346,0.4694,0
2003/6/3 18:30,0,0,0,0.2219,0.345,0.0429,0.0343,0.9989,0
2003/6/3 18:45,0,0,0,0.229,0.215,0.0432,0.0818,1.2554,0
2003/6/3 19:00,0,0,0,1.2524,0.1938,0.0602,0.0341,1.1393,0
2003/6/3 19:15,0,0,0,2.6603,0.3096,0.0423,0.0341,1.1215,0
2003/6/3 19:30,0,0,0,0.1452,0.1643,0.1303,0.0338,1.1395,0
2003/6/3 19:45,0,0,0,0.1359,0.2524,0.0426,0.0338,1.1357,0
2003/6/3 20:00,0,0,0,0.1312,0.4078,0.0428,0.0804,1.1448,0
2003/6/3 20:15,0,0,0,0.1335,0.2403,0.0428,0.034,1.1871,0
2003/6/3 20:30,0,0,0,0.1331,0.2097,0.0429,0.0331,1.2354,0
2003/6/3 20:45,0,0,0,1.4407,0.4018,0.0432,0.0297,1.2132,0
2003/6/3 21:00,0,0,0,0.1332,0.2115,0.0433,0.0805,1.6754,0
2003/6/3 21:15,0,0,0,0.1348,0.2051,0.0433,0.0338,1.3563,0
2003/6/3 21:30,0,0,0,0.1277,0.4005,0.0429,0.0341,1.73,0
2003/6/3 21:45,0,0,0,0.1346,0.2029,0.0429,0.034,1.4338,0
2003/6/3 22:00,0,0,0,0.1299,0.1814,0.0428,0.0812,1.6927,0
2003/6/3 22:15,0,0,0,0.128,0.3099,0.0431,0.0341,1.4711,0
2003/6/3 22:30,0,0,0,0.1316,0.1621,0.3551,0.0338,1.2109,0
2003/6/3 22:45,0,0,0,0.1342,0.2514,0.3974,0.019,1.1791,0
2003/6/3 23:00,0,0,0,0.1305,0.4045,0.3944,0.0242,1.2115,0
2003/6/3 23:15,0,0,0,0.1358,0.2357,0.3845,0.0664,1.4895,0
2003/6/3 23:30,0,0,0,0.1329,0.2448,0.4046,0.0382,1.2038,0
2003/6/3 23:45,0,0,0,0.1332,0.4553,0.2975,0.0765,0.9406,0
2003/6/4 0:00,0,0,0,0.1305,0.2494,0.0435,0.1329,0.2987,0
2003/6/4 0:15,0,0,0,0.1346,0.2454,0.0439,0.1139,0.3021,0
2003/6/4 0:30,0,0,0,0.1367,0.4454,0.0432,0.0966,0.3024,0
2003/6/4 0:45,0,0,0,0.131,0.0793,0.0431,0.0969,0.2917,0
2003/6/4 1:00,0,0,0,0.1335,0.3931,0.0431,0.0834,0.2907,0
2003/6/4 1:15,0,0,0,0.1338,0.275,0.0433,0.1355,0.292,0
2003/6/4 1:30,0,0,0,0.1335,0.1498,0.0435,0.0855,0.2853,0
2003/6/4 1:45,0,0,0,0.1322,0.3136,0.0431,0.0851,0.2863,0
2003/6/4 2:00,0,0,0,0.1351,0.2118,0.0435,0.0857,0.3004,0
2003/6/4 2:15,0,0,0,0.1332,0.1529,0.0435,0.1377,0.2866,0
2003/6/4 2:30,0,0,0,0.1309,0.3151,0.0435,0.0851,0.2998,0
2003/6/4 2:45,0,0,0,0.1359,0.2146,0.0436,0.0857,0.2982,0
2003/6/4 3:00,0,0,0,0.1318,0.1506,0.0433,0.0854,0.2844,0
2003/6/4 3:15,0,0,0,0.1346,0.3139,0.0426,0.0854,0.2923,0
2003/6/4 3:30,0,0,0,0.1316,0.2976,0.0426,0.1436,0.3336,0
2003/6/4 3:45,0,0,0,0.131,0.2866,0.0425,0.078,0.3126,0
2003/6/4 4:00,0,0,0,0.1364,0.42,0.0426,0.0855,0.2981,0
2003/6/4 4:15,0,0,0,0.1358,0.5655,0.0429,0.086,0.2925,0
2003/6/4 4:30,0,0,0,0.1346,0.481,0.0428,0.1364,0.2858,0
2003/6/4 4:45,0,0,0,0.1303,0.5064,0.0433,0.0387,0.2778,0
2003/6/4 5:00,0,0,0,0.1359,0.4452,0.0432,0.0233,0.2971,0
2003/6/4 5:15,0,0,0,0.1323,0.4617,0.0432,0.0233,0.2903,0
2003/6/4 5:30,0.0003,0,0,0.1346,0.3154,0.0433,0.0233,0.2847,0
2003/6/4 5:45,0,0,0,0.1345,0.0894,0.0431,0.0769,0.2827,0
2003/6/4 6:00,0.0003,0,0,0.1295,0.4032,0.0432,0.0233,0.2789,0
2003/6/4 6:15,0,0,0,0.1371,0.246,0.0429,0.0387,0.2765,0
2003/6/4 6:30,0,0,0,0.132,0.1712,0.0428,0.035,0.276,0
2003/6/4 6:45,0,0,0,0.1355,0.3905,0.3591,0.0776,1.1789,0
2003/6/4 7:00,0,0,0,0.5057,0.1057,0.4355,0.033,1.7487,0
2003/6/4 7:15,0,0,0,0.8912,0.3586,0.4029,0.2652,1.1317,0
2003/6/4 7:30,0,0,0,1.7801,0.3021,0.4281,0.707,1.0155,0
2003/6/4 7:45,0,0,0,1.0377,0.1551,0.4196,0.5387,1.0992,0
2003/6/4 8:00,0,0,0,0.1306,0.4098,0.412,0.74,1.5081,0
2003/6/4 8:15,0,0,0,0.1333,0.2755,0.4189,0.037,1.1036,0
2003/6/4 8:30,0,0,0,0.1359,0.1308,0.3943,0.0685,0.7425,0
2003/6/4 8:45,0.0003,0,0,0.1352,0.4084,0.1236,0.0351,0.3717,0
2003/6/4 9:00,0.0003,0,0,0.1331,0.2799,0.0435,0.035,0.2701,0
2003/6/4 9:15,0,0,0,0.1351,0.1215,0.0433,0.0772,0.2609,0
2003/6/4 9:30,0,0,0,0.1332,0.3146,0.0438,0.0348,0.2663,0
2003/6/4 9:45,0,0,0,0.1372,0.2121,0.0435,0.0344,0.2645,0
2003/6/4 10:00,0,0,0,0.1335,0.144,0.0438,0.0802,0.255,0
2003/6/4 10:15,0,0,0,0.1362,0.3142,0.0433,0.0343,0.2641,0
2003/6/4 10:30,0,0,0,0.1355,0.2102,0.0436,0.0343,0.2648,0
2003/6/4 10:45,0,0,0,0.1333,0.1392,0.0435,0.0341,0.2608,0
2003/6/4 11:00,0,0,0,0.1348,0.3142,0.0435,0.0867,0.2625,0
2003/6/4 11:15,0,0,0,0.1371,0.2051,0.0435,0.0337,0.2667,0
2003/6/4 11:30,0,0,0,0.1358,0.1492,0.0433,0.0207,0.2647,0
2003/6/4 11:45,0,0,0,0.1332,0.3129,0.0435,0.0223,0.2622,0
2003/6/4 12:00,0.0001,0,0,0.1358,0.2026,0.052,0.0226,0.2638,0
2003/6/4 12:15,0,0,0,0.1345,0.1486,0.0433,0.0779,0.355,0
2003/6/4 12:30,0,0,0,0.1333,0.3132,0.0432,0.0204,0.2539,0
2003/6/4 12:45,0.0009,0,0,0.2051,0.1974,0.2676,0.0235,0.723,0
2003/6/4 13:00,0,0,0,1.0521,0.195,0.3096,0.0232,0.9917,0
2003/6/4 13:15,0,0,0,0.1333,0.4026,0.0433,0.023,0.9416,0
2003/6/4 13:30,0,0,0,0.1322,0.1296,0.0432,0.0793,0.9634,0
2003/6/4 13:45,0,0,0,0.138,0.3288,0.0435,0.0382,1.104,0
2003/6/4 14:00,0,0,0,0.1306,0.2503,0.0433,0.0346,1.2148,0
2003/6/4 14:15,0,0,0,0.1339,0.1989,0.0433,0.0337,0.6047,0
2003/6/4 14:30,0,0,0,0.1377,0.3702,0.0432,0.0396,0.6011,0
2003/6/4 14:45,0,0,0,0.1323,0.0812,0.0433,0.0814,0.6025,0
2003/6/4 15:00,0,0,0,0.1371,0.4054,0.0435,0.0334,0.6353,0
2003/6/4 15:15,0,0,0,0.1348,0.1434,0.2831,0.0336,0.7092,0
2003/6/4 15:30,0,0,0,0.1349,0.2507,0.4468,0.0333,0.7651,0
2003/6/4 15:45,0,0,0,0.1323,0.302,0.4663,0.0855,0.753,0
2003/6/4 16:00,0,0,0,0.1358,0.0969,0.4552,0.0333,0.7507,0
2003/6/4 16:15,0,0,0,0.1368,0.2661,0.4529,0.0334,0.7577,0
2003/6/4 16:30,0,0,0,0.1318,0.3057,0.1548,0.0276,0.8999,0
2003/6/4 16:45,0,0,0,0.1369,0.0984,0.0433,0.0327,0.9531,0
2003/6/4 17:00,0,0,0,0.1335,0.3273,0.0433,0.0808,1.0077,0
2003/6/4 17:15,0,0,0,0.1323,0.3324,0.0432,0.0336,0.9262,0
2003/6/4 17:30,0,0,0,0.1387,0.1175,0.0433,0.0336,0.9003,0
2003/6/4 17:45,0,0,0,0.1323,0.3973,0.0432,0.0336,0.9276,0
2003/6/4 18:00,0,0,0,0.1346,0.3015,0.0431,0.0337,1.0866,0
2003/6/4 18:15,0,0,0,1.1717,0.0307,0.0428,0.0831,1.2283,0
2003/6/4 18:30,0,0,0,2.8629,0.3934,0.3869,0.0343,1.1687,0
2003/6/4 18:45,0,0,0,2.5272,0.3632,0.4722,0.0343,0.9223,0
2003/6/4 19:00,0,0,0,2.234,0.0541,0.4467,0.0344,1.3585,0
2003/6/4 19:15,0.0003,0,0,0.6371,0.4094,0.3335,0.0808,1.0211,0
2003/6/4 19:30,0.0003,0,0,0.165,0.2187,0.0435,0.0344,1.4859,0
2003/6/4 19:45,0.0003,0,0,0.1564,0.2421,0.0436,0.0348,1.065,0
2003/6/4 20:00,0,0,0,0.3856,0.4088,0.0426,0.0347,1.0868,0
2003/6/4 20:15,0,0,0,0.1634,0.3417,0.0426,0.0749,1.0362,0
2003/6/4 20:30,0,0,0,0.1976,0.1053,0.0426,0.0347,1.0403,0
2003/6/4 20:45,0,0,0,0.196,0.4141,0.0426,0.0343,1.0253,0
2003/6/4 21:00,0,0,0,0.1993,0.3249,0.0425,0.0334,1.3635,0
2003/6/4 21:15,0,0,0,0.2039,0.1071,0.0428,0.0818,1.6056,0
2003/6/4 21:30,0,0,0,0.2009,0.3167,0.0428,0.0354,1.8467,0
2003/6/4 21:45,0,0,0,0.1992,0.2781,0.0431,0.035,1.5984,0
2003/6/4 22:00,0,0,0,0.201,0.0773,0.0429,0.0348,1.474,0
2003/6/4 22:15,0,0,0,0.1987,0.3217,0.0432,0.0837,1.1278,0
2003/6/4 22:30,0,0,0,0.2125,0.3325,0.0433,0.0348,1.1379,0
2003/6/4 22:45,0.0003,0,0,0.1968,0.1434,0.0435,0.0346,1.1904,0
2003/6/4 23:00,0.0003,0,0,0.2032,0.2529,0.0432,0.035,1.1962,0
2003/6/4 23:15,0,0,0,2.6024,0.3184,0.0431,0.0347,1.3758,0
2003/6/4 23:30,0,0,0,0.462,0.3069,0.1243,0.0831,1.6137,0
2003/6/4 23:45,0,0,0,0.1116,0.1293,0.4123,0.0799,1.208,0
2003/6/5 0:00,0,0,0,0.1549,0.4113,0.149,0.0966,0.9229,0
2003/6/5 0:15,0.0006,0,0,0.1816,0.39,0.0431,0.0971,0.4951,0
2003/6/5 0:30,0.0009,0,0,0.2013,0.0546,0.0432,0.146,0.3875,0
2003/6/5 0:45,0,0,0,0.2,0.4121,0.0432,0.0988,0.3835,0
2003/6/5 1:00,0,0,0,0.2036,0.382,0.0432,0.0855,0.3709,0
2003/6/5 1:15,0,0,0,0.3171,0.0528,0.0431,0.0868,0.3622,0
2003/6/5 1:30,0.0003,0,0,0.4152,0.3217,0.0432,0.1392,0.7177,0
2003/6/5 1:45,0.0003,0,0,0.2134,0.2976,0.0435,0.0881,0.4614,0
2003/6/5 2:00,0.0006,0,0,0.1966,0.0523,0.0435,0.088,0.3054,0
2003/6/5 2:15,0.0004,0,0,0.228,0.321,0.0438,0.0881,0.5567,0
2003/6/5 2:30,0,0,0,0.2316,0.2969,0.0436,0.138,0.5043,0
2003/6/5 2:45,0,0,0,0.2386,0.0544,0.0436,0.0883,0.4759,0
2003/6/5 3:00,0.0004,0,0,0.2305,0.319,0.0433,0.0881,0.6155,0
2003/6/5 3:15,0.0007,0,0,0.237,0.2972,0.0428,0.0884,0.3298,0
2003/6/5 3:30,0,0,0,0.2403,0.2988,0.0428,0.1397,0.4573,0
2003/6/5 3:45,0.0006,0,0,0.2386,0.3093,0.0428,0.0881,0.4245,0
2003/6/5 4:00,0,0,0,0.2359,0.5653,0.0428,0.0884,0.2894,0
2003/6/5 4:15,0.0006,0,0,0.2438,0.4896,0.0431,0.0883,0.2827,0
2003/6/5 4:30,0,0,0,0.2292,0.5296,0.0431,0.1436,0.3024,0